Wind_Speed
15 16 18 17 16 17 16 14 12 13 14 15 15 15 15 15 15 15 14 14 13 13 14 14 15 16 17 18 19 20 21 22 23 24 24 25 26 26 27 27 25 23 22 22 22 22 22 22 22 22 22 24 25 25 26 26 26 26 28 29 30 30 30
16 17 19 19 20 20 18 15 13 12 13 14 15 15 15 16 16 16 16 16 15 15 16 16 17 17 18 18 18 19 20 21 22 22 23 24 25 25 26 27 26 25 25 25 24 24 24 24 24 24 24 26 26 26 27 27 26 26 26 27 28 30 31
19 20 22 22 21 21 18 15 14 13 13 14 14 15 15 15 16 17 18 18 18 18 17 17 17 17 17 18 18 18 19 19 20 21 21 22 23 24 25 26 26 26 26 25 24 24 24 25 26 25 25 26 27 27 27 27 26 26 26 26 27 28 29
19 21 23 22 21 20 17 15 15 15 14 14 14 15 14 15 16 17 18 18 18 18 17 17 17 17 17 17 17 17 18 18 19 19 19 20 21 22 23 24 24 24 25 24 23 23 23 24 25 25 25 25 25 27 27 27 26 26 26 26 26 26 28
20 21 22 22 21 19 16 15 16 15 15 14 14 14 14 15 16 17 17 17 17 17 16 16 16 15 15 15 15 16 16 16 16 17 17 18 19 20 20 21 22 23 23 23 23 23 23 23 24 24 24 24 24 25 26 26 26 26 26 25 25 26 27
21 21 21 21 22 19 14 13 14 13 13 13 13 14 14 14 15 16 16 16 15 15 15 14 14 14 14 14 14 14 14 14 14 14 15 15 16 17 18 20 21 21 22 22 22 22 22 22 22 22 22 23 23 23 24 24 24 25 25 24 24 25 26
22 21 21 22 23 19 13 13 14 12 11 11 12 13 13 14 15 15 16 15 14 13 13 13 13 13 13 13 13 13 13 12 12 12 12 12 13 14 15 16 17 18 19 19 19 19 19 19 19 20 20 20 21 21 21 22 22 23 23 23 23 23 25
24 22 21 22 24 21 15 14 14 13 11 11 11 12 12 13 14 15 15 15 14 14 13 13 13 12 12 12 12 12 12 12 12 11 11 11 10 11 11 12 13 14 14 14 15 15 16 16 16 17 16 17 17 17 18 19 20 20 20 21 21 21 22
28 27 25 24 25 24 19 15 14 12 11 11 11 11 11 12 12 13 14 14 13 13 13 13 13 13 13 12 12 12 12 12 12 12 11 10 9 9 9 9 10 10 11 11 12 13 14 15 15 15 14 14 14 14 14 16 16 16 16 17 17 18 18
29 29 27 24 25 24 21 16 14 13 12 11 11 11 11 11 11 11 12 12 12 12 12 12 12 12 12 12 12 12 13 13 13 13 12 11 10 9 8 8 8 9 9 10 11 11 12 13 13 14 14 13 13 12 12 12 12 12 12 13 13 13 13
22 23 23 23 23 22 21 18 15 15 14 12 11 11 12 12 12 12 12 12 12 12 12 12 12 11 11 11 12 12 12 13 13 13 13 12 11 10 9 8 8 8 9 10 11 11 11 11 12 12 12 12 12 11 11 11 10 10 10 10 9 9 10
11 13 14 18 20 19 19 19 17 15 15 14 13 13 13 14 14 13 13 13 13 13 13 13 13 13 13 13 13 13 14 14 14 14 14 13 12 11 10 9 9 8 9 9 11 12 12 12 12 12 12 12 12 11 11 10 10 10 10 10 9 8 9
13 12 10 11 13 15 17 20 19 15 14 14 14 14 15 15 15 15 15 15 15 15 15 15 15 15 15 14 14 15 15 15 15 15 15 14 13 12 11 11 10 9 9 9 10 11 12 13 13 13 13 13 13 13 12 12 11 11 11 11 11 10 10
12 10 8 8 10 13 17 20 21 18 16 15 15 15 16 17 17 17 16 16 16 16 16 16 15 15 14 14 14 14 13 14 14 14 14 13 13 12 11 11 11 11 11 10 10 10 10 11 12 13 14 14 14 14 14 14 14 13 13 13 13 12 12
10 8 5 7 11 15 17 20 21 21 20 19 17 17 17 17 17 17 17 17 17 17 17 17 16 15 15 14 14 13 12 12 12 13 13 12 11 10 10 10 11 12 12 12 12 11 11 11 12 12 13 13 14 14 14 15 15 15 15 15 15 15 14
11 10 9 10 13 16 18 19 19 21 22 20 18 18 17 17 18 18 18 18 18 19 19 19 18 17 16 16 15 14 12 12 11 12 12 11 10 9 10 12 13 14 15 15 15 15 14 13 14 14 14 14 14 15 16 17 17 17 17 17 17 17 16
12 14 14 13 14 17 19 18 17 19 20 19 18 19 18 17 18 19 19 18 19 20 21 20 19 19 18 17 17 16 15 14 13 13 13 12 12 12 13 14 16 17 18 18 18 18 17 17 17 18 18 18 18 19 19 20 20 20 20 20 19 19 19
14 16 15 14 16 19 20 19 18 19 20 20 20 20 20 19 19 21 21 20 20 21 22 21 20 20 19 19 18 18 17 17 16 16 15 16 16 16 16 16 16 17 19 19 19 19 19 19 20 21 22 23 23 23 24 24 24 23 23 23 22 22 21
15 15 15 15 17 19 20 20 20 20 20 22 22 21 21 20 22 23 23 21 22 24 24 23 22 22 23 23 21 21 20 20 20 20 19 19 20 19 18 17 16 16 17 18 19 19 19 20 21 22 23 24 26 27 27 28 28 27 27 27 26 26 24
17 16 17 17 17 19 21 20 20 21 23 23 23 22 21 22 24 26 25 24 24 26 25 25 25 25 25 24 24 24 24 23 23 23 23 23 23 22 21 19 19 19 19 19 20 21 21 22 23 24 25 25 25 26 28 29 30 30 30 30 30 30 29
21 22 22 20 17 18 20 19 19 21 22 22 22 22 21 23 24 26 28 28 27 27 29 29 30 29 29 28 27 26 24 23 23 23 24 24 24 24 24 23 23 24 25 26 26 26 27 28 29 29 29 29 28 28 29 29 30 31 32 33 33 33 34
22 22 22 20 18 17 19 20 20 21 21 21 21 22 23 25 27 29 30 30 30 31 33 32 30 30 29 29 28 26 24 24 23 24 25 26 27 28 28 27 27 28 29 30 31 32 32 32 33 33 33 33 33 34 33 33 34 34 35 36 37 37 38
22 20 19 20 20 19 21 23 23 23 23 23 21 22 24 29 32 31 29 30 33 36 34 28 24 23 23 23 23 23 24 25 25 26 27 28 30 31 31 31 31 31 32 32 33 34 34 34 35 36 35 36 37 38 38 38 40 40 41 41 42 42 42
26 25 24 26 27 26 27 29 29 28 29 28 26 26 27 30 32 31 31 32 32 33 31 25 22 22 22 23 23 24 25 26 27 29 30 31 33 34 35 36 36 37 37 37 37 37 37 37 38 39 39 40 41 42 42 43 44 45 45 45 45 45 45
32 31 29 28 30 31 32 33 33 32 33 33 31 30 31 33 34 34 35 36 34 33 33 32 31 29 28 28 28 27 27 28 29 31 32 34 35 37 38 39 40 41 42 43 43 43 43 43 43 44 44 45 45 46 46 47 47 46 46 46 47 47 47
35 35 32 28 29 31 33 33 33 34 34 33 32 31 32 35 37 37 38 38 39 40 40 40 39 37 34 32 31 30 30 31 32 33 34 35 37 38 40 41 42 42 43 44 45 45 46 46 46 46 46 46 47 47 48 48 48 47 45 46 48 49 49
36 36 36 34 33 34 34 34 33 34 33 32 33 33 34 35 37 39 40 41 41 41 40 39 39 38 36 34 33 33 33 33 34 35 36 37 38 39 40 40 41 42 43 44 45 46 47 47 47 47 47 47 47 48 49 49 49 48 48 48 49 50 50
39 39 39 38 37 37 38 38 38 38 36 35 35 35 34 34 36 37 38 39 39 40 39 38 36 35 35 35 36 36 36 36 37 37 37 37 38 38 39 39 40 41 43 44 45 46 47 48 48 48 49 49 49 49 50 50 50 50 50 50 50 52 52
42 42 41 40 40 40 41 42 43 42 41 39 38 37 36 36 37 37 37 38 38 40 40 39 37 36 36 37 38 39 40 40 40 39 38 38 38 38 39 40 40 41 43 44 45 47 47 48 49 49 50 50 51 52 52 52 51 51 51 51 52 54 55
43 42 42 42 41 41 42 42 43 44 43 42 42 41 40 40 39 39 39 39 39 41 42 41 41 40 40 41 41 41 41 41 41 41 40 39 39 40 40 41 41 42 43 44 45 46 47 48 49 50 51 51 52 52 52 53 53 52 52 51 52 53 55
41 42 42 41 40 41 42 43 44 44 44 45 45 45 44 43 43 43 42 42 42 43 44 44 44 44 44 43 42 41 40 41 41 41 41 41 42 42 43 43 44 44 44 45 45 46 47 48 48 49 50 50 51 51 51 51 51 51 51 51 52 52 53
40 40 41 40 40 40 41 42 44 45 45 46 47 48 47 46 45 45 44 44 44 45 45 46 46 46 45 43 42 41 41 41 42 43 44 45 46 46 46 46 46 47 47 47 47 47 47 47 48 48 48 48 48 48 48 48 49 49 50 51 51 52 52
42 42 42 41 41 41 41 42 44 44 45 48 49 50 49 48 47 46 45 44 44 44 45 45 45 45 44 43 42 42 42 43 43 45 46 47 48 48 48 47 48 48 48 48 48 48 48 48 48 47 47 47 47 47 47 47 48 49 49 50 50 51 52
47 46 44 43 43 43 43 44 44 43 44 46 47 46 47 48 47 45 45 44 44 44 44 44 44 45 45 45 45 45 46 46 46 47 48 49 50 50 50 49 49 49 49 49 48 48 48 48 48 47 47 47 47 47 47 47 47 48 48 49 50 51 52
54 53 51 49 47 47 46 45 45 45 46 47 47 46 48 49 49 48 47 47 47 47 46 45 44 45 46 47 48 49 49 49 49 49 51 51 52 52 51 50 50 50 50 49 48 48 48 48 47 47 46 46 47 47 47 47 47 47 48 48 49 50 51
59 58 57 55 53 52 51 49 47 47 48 48 48 48 49 50 49 49 49 49 49 48 48 48 48 48 48 48 48 49 50 51 52 53 53 53 54 54 53 52 50 50 50 50 49 48 47 47 46 46 45 45 46 46 46 46 46 47 48 48 49 49 50
60 60 59 57 55 54 54 54 53 52 51 50 48 48 50 50 50 51 51 51 51 51 51 51 50 49 48 48 49 51 53 54 55 55 55 56 56 55 54 53 51 51 51 51 49 47 46 46 45 45 45 45 45 45 45 46 46 47 47 48 48 49 49
Wind_Direction
292 288 283 276 275 286 294 294 294 292 287 282 277 275 271 265 259 254 249 246 245 244 245 246 247 248 250 252 254 257 258 259 260 260 261 261 262 264 266 268 268 265 262 262 261 261 262 262 262 262 265 268 270 270 268 267 266 264 262 259 258 257 257
299 300 296 289 284 285 288 287 288 290 286 278 271 266 263 261 256 250 247 243 241 241 241 242 244 246 248 251 253 255 257 258 260 261 261 262 263 265 266 267 267 265 265 267 267 266 265 265 264 264 265 267 269 270 269 269 269 269 267 264 260 258 257
299 301 298 294 291 290 289 287 288 289 287 280 271 262 256 252 248 243 240 238 237 237 238 239 242 244 247 250 253 254 256 257 259 260 260 261 262 263 264 266 267 269 270 271 271 269 267 266 267 268 266 265 267 268 269 269 270 270 270 268 265 260 257
292 295 293 292 291 292 291 288 287 286 283 279 271 263 255 250 245 240 236 235 235 235 236 238 240 243 245 247 250 252 254 256 258 259 260 261 263 264 265 266 268 269 271 272 271 269 268 267 268 269 268 266 265 267 268 269 269 269 269 269 267 262 258
286 288 287 289 290 291 292 287 283 281 276 272 268 263 257 253 248 243 238 235 234 234 236 238 239 241 242 244 246 249 251 255 258 260 261 263 266 267 268 269 269 270 270 271 271 271 270 269 269 269 269 267 266 265 267 268 268 268 268 267 265 262 258
288 285 278 282 288 290 289 280 275 275 272 267 265 261 257 255 252 248 244 239 236 236 236 238 239 240 240 240 241 244 247 252 257 262 266 269 271 273 274 273 273 273 273 273 273 272 271 270 270 270 270 270 269 267 266 267 268 267 267 266 264 261 258
284 281 269 270 280 283 276 271 271 270 268 263 260 257 254 254 253 250 247 243 240 240 240 240 241 242 242 241 239 239 241 245 251 256 263 268 272 275 277 278 279 278 277 276 275 274 273 272 272 273 272 272 272 270 269 268 268 268 268 267 264 261 258
274 273 263 260 269 270 261 263 268 264 260 257 254 254 253 253 254 253 250 246 242 241 241 241 241 241 241 241 240 238 238 241 244 248 254 260 265 270 274 279 283 286 287 288 287 285 284 281 280 280 280 279 279 278 275 273 270 270 269 268 266 264 261
268 269 266 259 259 259 253 253 259 258 255 253 250 252 254 254 256 257 255 251 247 245 246 245 245 244 242 240 239 238 239 241 243 246 249 254 260 267 274 281 286 293 298 299 300 299 296 293 291 291 291 290 289 288 285 282 279 276 272 271 270 267 265
264 264 266 258 250 250 248 246 247 249 249 247 246 248 251 253 254 255 255 253 251 249 249 249 250 251 251 249 247 245 245 245 247 249 251 254 258 262 271 280 287 293 297 298 298 297 296 296 296 297 298 298 297 296 293 291 290 288 283 279 278 275 271
258 259 260 247 241 245 250 252 251 245 242 242 245 247 248 251 252 253 253 252 251 250 249 248 249 252 255 258 259 259 258 257 256 255 256 257 259 261 263 268 275 281 287 290 290 289 289 290 291 293 295 296 297 297 295 293 292 292 291 288 286 284 281
263 268 259 237 236 247 256 260 258 246 239 240 244 248 249 250 252 253 253 252 251 251 250 249 249 250 252 254 257 259 261 262 263 262 262 263 263 266 268 269 271 273 277 281 284 286 285 285 285 285 286 287 287 287 285 284 282 281 281 281 280 279 277
282 286 276 251 249 258 262 263 261 253 246 246 248 250 251 251 252 253 254 256 256 255 253 251 251 252 254 255 256 256 257 258 259 260 261 263 263 266 269 272 275 276 276 277 280 284 286 287 287 286 285 283 281 280 277 275 274 270 269 270 272 272 272
284 295 290 280 270 261 258 260 264 264 263 263 260 256 254 253 254 255 256 258 257 255 254 252 252 253 255 256 255 256 256 256 257 258 259 259 260 261 265 269 273 275 275 275 276 281 285 286 286 286 285 284 282 280 277 274 271 268 266 264 264 265 268
289 309 289 271 263 254 253 260 268 271 271 270 268 263 258 257 259 260 261 262 260 258 256 254 253 253 252 251 249 249 252 257 262 263 262 260 258 261 270 277 281 282 280 279 278 280 283 283 281 280 280 280 282 282 280 278 275 272 270 267 266 266 267
280 285 277 272 263 257 256 257 263 268 270 269 266 263 261 261 263 264 264 265 266 268 266 261 257 254 250 248 245 244 250 260 266 266 264 262 263 271 283 289 291 291 290 288 285 283 282 280 278 276 275 274 276 278 279 279 278 276 273 269 267 266 265
272 276 282 277 265 263 261 255 255 260 264 266 265 263 263 264 265 266 265 263 265 267 269 267 264 260 255 249 246 246 251 259 264 263 261 261 266 275 285 291 291 289 286 285 285 283 281 279 276 274 272 270 270 272 273 275 276 276 276 273 270 267 266
271 273 277 271 264 264 262 258 256 254 256 260 262 262 262 261 261 263 262 260 257 255 258 261 262 261 258 254 251 251 254 258 261 262 262 262 266 272 280 287 289 286 281 277 275 276 278 279 278 276 274 272 271 271 271 271 272 274 276 277 275 274 273
267 268 273 273 269 267 264 260 256 254 255 258 258 259 260 261 261 261 261 260 254 250 251 253 255 257 258 257 256 256 258 261 263 264 263 263 265 269 274 278 281 281 279 275 270 269 271 274 277 277 276 276 274 273 272 271 271 271 272 274 275 275 275
266 269 277 279 269 262 260 256 252 252 255 258 261 262 263 264 265 263 264 263 256 250 250 251 250 253 255 256 259 261 261 262 265 266 266 266 268 271 274 273 271 271 272 271 269 268 269 272 274 276 277 277 276 275 273 272 271 270 270 271 272 272 273
274 276 280 277 265 252 246 246 251 252 252 256 261 263 263 265 266 264 264 265 260 255 255 254 252 252 253 257 261 263 260 261 265 268 269 272 275 278 279 277 273 272 272 273 272 271 270 272 273 273 274 275 274 274 274 273 271 270 269 269 270 271 273
278 280 277 269 262 257 249 249 255 255 253 256 259 263 267 267 266 263 260 259 257 254 254 253 251 249 250 254 258 257 256 260 267 272 274 277 279 281 282 280 276 275 275 275 275 274 273 273 273 273 273 273 273 273 273 273 272 271 270 269 270 271 273
274 274 272 266 265 264 258 254 254 251 252 255 257 262 265 264 263 261 256 251 246 243 243 243 242 240 242 246 250 252 256 262 268 273 276 278 280 282 282 281 279 276 275 274 274 274 273 273 274 274 275 275 274 274 274 273 272 272 271 271 271 272 272
270 267 267 269 270 266 261 259 256 253 256 259 259 258 260 262 264 262 260 257 251 246 245 248 252 252 251 251 253 257 262 266 270 273 276 277 279 280 280 280 278 277 276 276 275 275 274 274 274 275 276 276 276 276 276 275 274 273 272 272 271 271 271
269 267 265 268 270 265 260 259 258 257 259 261 261 260 261 264 266 264 263 264 264 262 263 266 269 269 264 260 260 264 269 272 274 275 276 276 277 277 277 276 275 275 275 276 276 277 277 277 277 276 276 276 276 276 276 276 276 275 274 272 271 270 270
264 263 262 263 263 260 256 257 259 259 259 261 262 263 262 263 265 266 266 267 269 272 273 274 276 275 272 268 267 270 274 276 276 276 275 275 275 275 275 275 276 276 277 278 279 279 279 279 279 278 278 277 277 277 276 276 276 275 273 273 272 271 270
259 258 258 258 258 256 254 256 259 260 260 261 262 264 265 265 264 265 267 269 272 275 276 275 274 274 274 272 271 271 273 274 276 277 277 278 278 279 279 280 280 280 280 281 281 281 281 282 282 282 282 281 281 280 280 279 278 276 275 273 273 271 270
256 256 257 258 258 257 255 256 259 261 261 261 260 262 266 267 266 266 267 270 272 274 274 274 272 271 271 271 271 271 272 273 275 278 281 284 285 286 286 285 284 283 281 281 280 281 281 282 283 284 284 284 284 283 282 282 281 280 278 276 274 272 272
257 258 259 260 260 258 256 256 258 260 261 261 260 262 265 267 268 268 268 269 270 270 270 270 270 270 270 273 274 275 275 276 277 279 283 287 290 291 291 289 287 285 283 281 280 280 280 281 281 282 282 283 283 284 284 283 283 282 281 279 277 276 274
259 259 260 261 261 261 259 257 257 259 261 260 260 264 267 268 268 268 267 267 268 267 267 267 268 269 273 278 280 280 280 279 279 280 283 287 292 294 294 292 289 286 284 282 281 280 280 280 280 281 281 282 282 283 283 284 284 284 283 282 280 279 278
258 257 256 256 256 258 259 259 259 259 261 261 263 267 270 271 270 268 266 266 266 265 265 266 267 270 275 280 281 282 283 282 281 281 283 288 292 295 295 294 292 289 286 284 283 282 282 281 281 281 281 281 282 282 283 284 284 285 284 284 283 281 280
254 253 253 253 253 254 256 258 259 260 261 262 265 269 271 271 268 266 265 265 265 265 265 267 269 272 277 279 280 281 282 283 283 284 286 289 292 294 295 295 294 292 289 287 286 285 285 284 283 283 282 282 283 283 284 284 285 285 285 285 285 284 283
252 253 253 253 254 255 255 257 259 261 262 265 267 269 269 268 266 265 266 268 268 268 269 270 272 274 275 276 277 278 279 281 283 285 287 289 291 293 294 294 294 293 291 290 288 287 287 286 285 284 284 284 284 285 285 286 286 287 287 287 286 285 283
254 255 255 254 254 256 257 257 258 259 262 266 268 269 268 268 268 269 270 271 272 272 272 273 273 273 273 274 275 276 277 279 281 285 288 291 293 293 293 294 293 293 291 290 289 287 287 286 286 285 285 286 286 287 287 288 288 288 287 286 285 284 283
257 257 258 257 257 256 257 257 257 258 261 263 265 267 268 270 272 272 271 270 270 271 272 273 274 274 274 275 276 277 278 280 284 289 293 295 296 295 294 293 292 292 291 289 288 286 286 285 285 285 286 286 287 287 288 288 288 286 285 284 283 284 284
258 259 259 260 259 258 257 255 255 257 259 261 263 265 268 271 273 273 272 272 272 273 274 275 275 275 276 277 277 278 281 285 289 293 296 298 298 297 295 293 291 291 290 289 287 286 285 284 284 285 285 286 286 287 287 287 286 285 284 284 284 284 285
259 259 259 260 259 259 258 257 256 256 257 258 261 264 267 270 271 271 272 273 273 274 275 275 275 275 275 276 278 281 285 288 291 294 296 297 297 296 294 293 291 290 289 289 288 286 285 285 285 285 285 286 286 287 287 286 286 285 285 285 285 285 286
Height
5765 5765 5764 5765 5766 5766 5766 5765 5765 5764 5764 5764 5764 5763 5764 5764 5764 5764 5765 5765 5766 5766 5767 5767 5768 5768 5769 5769 5770 5770 5770 5770 5770 5771 5771 5770 5770 5770 5769 5768 5769 5769 5769 5770 5770 5770 5770 5771 5771 5772 5772 5772 5772 5772 5772 5772 5773 5773 5773 5773 5773 5773 5773
5762 5762 5762 5762 5763 5763 5763 5763 5763 5763 5763 5763 5763 5763 5762 5762 5762 5762 5763 5763 5764 5764 5764 5765 5765 5766 5766 5767 5767 5767 5768 5768 5768 5768 5768 5768 5768 5768 5767 5766 5766 5767 5767 5767 5767 5768 5768 5768 5769 5770 5770 5770 5769 5769 5769 5769 5770 5770 5770 5770 5770 5770 5770
5760 5760 5759 5759 5759 5760 5760 5760 5760 5761 5761 5761 5761 5761 5761 5761 5761 5761 5761 5761 5762 5762 5762 5763 5763 5763 5764 5764 5764 5765 5765 5765 5765 5765 5765 5765 5765 5766 5765 5765 5764 5764 5764 5765 5765 5765 5765 5766 5766 5766 5767 5767 5767 5766 5766 5766 5767 5767 5767 5767 5767 5767 5767
5758 5758 5757 5757 5757 5757 5758 5758 5758 5759 5759 5759 5759 5759 5760 5760 5760 5759 5759 5759 5759 5760 5760 5760 5761 5761 5761 5762 5762 5762 5762 5762 5762 5762 5762 5763 5763 5763 5763 5763 5763 5762 5762 5762 5762 5762 5763 5763 5763 5763 5764 5764 5764 5764 5763 5764 5764 5764 5764 5764 5764 5764 5764
5756 5756 5755 5755 5755 5755 5756 5756 5756 5756 5757 5757 5757 5757 5757 5757 5757 5757 5757 5757 5757 5757 5758 5758 5758 5759 5759 5759 5760 5760 5760 5760 5760 5760 5760 5760 5761 5761 5761 5761 5761 5761 5760 5760 5760 5760 5760 5760 5760 5761 5761 5761 5761 5761 5760 5761 5761 5761 5761 5761 5761 5761 5762
5755 5755 5754 5753 5753 5753 5754 5754 5754 5754 5754 5755 5755 5755 5755 5755 5755 5755 5755 5755 5755 5755 5755 5756 5756 5757 5757 5757 5758 5758 5758 5758 5758 5758 5758 5759 5759 5759 5759 5760 5759 5759 5759 5759 5759 5758 5758 5758 5758 5758 5758 5758 5758 5758 5758 5758 5758 5758 5758 5759 5759 5759 5759
5753 5753 5753 5751 5750 5751 5752 5753 5752 5752 5752 5752 5753 5753 5753 5753 5753 5753 5753 5753 5753 5753 5754 5754 5754 5755 5755 5755 5756 5756 5756 5757 5757 5757 5757 5757 5757 5757 5758 5758 5758 5758 5758 5758 5757 5757 5757 5756 5756 5756 5756 5756 5756 5755 5755 5755 5755 5755 5755 5756 5756 5756 5756
5750 5750 5750 5750 5748 5748 5750 5750 5750 5750 5750 5750 5750 5750 5751 5751 5751 5751 5751 5751 5751 5751 5751 5752 5752 5753 5753 5754 5754 5754 5754 5755 5755 5755 5755 5755 5755 5755 5756 5756 5756 5756 5757 5756 5756 5756 5755 5755 5754 5754 5754 5754 5754 5754 5753 5753 5753 5753 5753 5753 5753 5754 5754
5746 5746 5747 5747 5746 5746 5747 5748 5748 5748 5748 5748 5748 5748 5748 5748 5748 5749 5749 5749 5749 5750 5750 5750 5750 5751 5751 5752 5752 5752 5752 5753 5753 5753 5753 5753 5754 5754 5754 5754 5754 5754 5755 5755 5755 5755 5755 5754 5754 5753 5753 5753 5752 5752 5752 5752 5752 5752 5751 5751 5751 5751 5751
5741 5741 5743 5744 5743 5744 5745 5745 5745 5746 5746 5745 5745 5745 5745 5746 5746 5747 5747 5747 5748 5748 5748 5748 5749 5749 5750 5750 5750 5751 5751 5751 5751 5752 5752 5752 5752 5752 5752 5752 5752 5753 5753 5753 5754 5754 5754 5753 5753 5752 5752 5752 5751 5751 5751 5751 5751 5751 5751 5750 5750 5750 5750
5736 5737 5739 5740 5740 5741 5742 5742 5743 5743 5743 5743 5743 5743 5743 5744 5744 5745 5745 5745 5746 5746 5746 5747 5747 5747 5748 5748 5748 5749 5749 5750 5750 5750 5750 5750 5750 5750 5750 5750 5751 5751 5751 5752 5752 5752 5752 5752 5752 5751 5751 5750 5750 5750 5750 5750 5750 5750 5750 5749 5749 5749 5749
5734 5735 5736 5737 5738 5738 5739 5739 5740 5741 5741 5741 5741 5741 5741 5741 5742 5743 5743 5743 5744 5744 5744 5744 5745 5745 5745 5746 5746 5746 5747 5747 5748 5748 5748 5749 5749 5749 5749 5749 5749 5749 5749 5750 5750 5750 5751 5751 5751 5750 5750 5749 5749 5749 5749 5749 5749 5749 5749 5748 5748 5748 5748
5732 5733 5733 5735 5736 5737 5737 5737 5737 5738 5738 5739 5739 5739 5739 5739 5739 5740 5740 5741 5741 5741 5742 5742 5742 5743 5743 5743 5744 5744 5744 5745 5745 5746 5746 5746 5747 5747 5747 5747 5747 5747 5747 5747 5748 5748 5749 5749 5749 5749 5749 5748 5748 5748 5747 5747 5747 5747 5747 5747 5747 5747 5747
5729 5730 5731 5733 5734 5735 5735 5735 5735 5735 5736 5736 5736 5736 5736 5736 5736 5737 5737 5738 5738 5739 5739 5739 5740 5740 5740 5741 5741 5742 5742 5742 5743 5743 5744 5744 5744 5745 5745 5745 5745 5746 5745 5746 5746 5746 5747 5747 5747 5747 5747 5747 5747 5747 5746 5746 5745 5745 5745 5745 5745 5745 5745
5729 5729 5730 5730 5731 5732 5733 5734 5733 5733 5733 5733 5733 5734 5734 5734 5734 5734 5735 5735 5736 5736 5737 5737 5737 5738 5738 5738 5739 5739 5740 5740 5741 5741 5741 5742 5742 5742 5743 5743 5743 5743 5744 5744 5744 5744 5744 5745 5745 5745 5746 5746 5746 5746 5745 5745 5744 5744 5744 5744 5743 5743 5743
5728 5728 5727 5727 5728 5729 5730 5731 5731 5731 5730 5730 5731 5731 5731 5732 5732 5732 5733 5733 5734 5735 5735 5735 5735 5735 5735 5736 5736 5737 5738 5738 5739 5739 5739 5739 5740 5740 5740 5740 5741 5741 5741 5742 5742 5742 5742 5742 5743 5743 5743 5744 5744 5744 5744 5743 5743 5743 5743 5743 5742 5742 5742
5725 5725 5725 5725 5726 5726 5727 5727 5728 5728 5728 5728 5728 5729 5729 5730 5730 5730 5731 5731 5732 5733 5733 5733 5733 5733 5733 5733 5734 5734 5735 5735 5736 5736 5737 5737 5737 5738 5738 5738 5738 5738 5739 5739 5739 5739 5740 5740 5740 5740 5741 5741 5741 5741 5741 5741 5741 5741 5741 5741 5741 5740 5740
5722 5722 5722 5723 5724 5724 5724 5725 5725 5725 5725 5725 5725 5725 5726 5727 5727 5727 5728 5729 5729 5729 5730 5731 5731 5731 5731 5731 5731 5731 5731 5732 5732 5733 5734 5734 5735 5735 5735 5735 5735 5735 5735 5736 5736 5736 5737 5737 5737 5737 5738 5738 5738 5739 5739 5739 5739 5738 5738 5738 5738 5738 5738
5720 5720 5720 5720 5721 5721 5721 5722 5723 5723 5723 5722 5722 5722 5722 5723 5724 5724 5725 5726 5726 5726 5726 5727 5727 5728 5728 5728 5728 5728 5728 5729 5729 5730 5730 5731 5732 5732 5732 5732 5732 5732 5732 5733 5733 5734 5734 5734 5734 5734 5734 5735 5735 5735 5735 5736 5736 5736 5735 5735 5734 5734 5734
5717 5717 5717 5717 5718 5718 5718 5719 5720 5720 5720 5719 5719 5719 5720 5720 5721 5721 5722 5722 5722 5722 5723 5724 5724 5724 5725 5725 5726 5726 5726 5726 5726 5726 5727 5728 5728 5729 5729 5729 5729 5729 5730 5730 5731 5731 5731 5731 5731 5731 5731 5732 5732 5732 5732 5732 5732 5732 5732 5732 5731 5731 5731
5714 5714 5714 5714 5715 5715 5715 5716 5716 5716 5716 5717 5717 5717 5717 5718 5718 5718 5719 5719 5719 5719 5720 5720 5720 5721 5721 5722 5723 5723 5723 5723 5723 5723 5723 5724 5725 5725 5726 5726 5726 5726 5726 5727 5727 5728 5728 5728 5728 5728 5728 5728 5728 5728 5728 5728 5728 5728 5728 5728 5728 5728 5727
5711 5711 5711 5711 5711 5711 5712 5712 5713 5713 5713 5714 5714 5715 5715 5715 5715 5716 5717 5717 5718 5718 5716 5715 5716 5717 5717 5718 5718 5719 5719 5719 5719 5720 5720 5720 5720 5721 5721 5722 5722 5722 5723 5723 5723 5724 5724 5724 5723 5723 5724 5724 5724 5724 5724 5724 5724 5724 5724 5724 5724 5724 5723
5708 5708 5708 5708 5709 5709 5709 5709 5710 5710 5710 5710 5711 5712 5712 5711 5711 5712 5712 5713 5714 5713 5711 5711 5712 5712 5713 5713 5714 5714 5714 5715 5715 5716 5716 5716 5716 5716 5717 5717 5718 5718 5718 5719 5719 5719 5719 5719 5719 5719 5719 5719 5719 5719 5719 5719 5719 5718 5719 5719 5719 5718 5718
5704 5704 5704 5705 5705 5706 5706 5705 5705 5706 5706 5707 5708 5708 5708 5707 5707 5707 5707 5707 5707 5707 5707 5708 5709 5709 5709 5709 5710 5710 5711 5711 5712 5712 5712 5713 5713 5713 5713 5713 5714 5714 5714 5714 5714 5714 5714 5714 5714 5714 5714 5713 5713 5713 5714 5713 5713 5712 5712 5713 5712 5711 5711
5699 5700 5700 5700 5701 5701 5700 5699 5700 5701 5701 5702 5703 5703 5703 5703 5702 5702 5702 5702 5702 5702 5702 5703 5704 5706 5706 5706 5706 5706 5707 5707 5708 5708 5709 5709 5709 5709 5709 5709 5709 5709 5709 5709 5709 5709 5708 5708 5708 5708 5708 5707 5708 5707 5707 5707 5706 5706 5706 5706 5705 5704 5703
5694 5694 5695 5696 5697 5697 5696 5695 5696 5696 5696 5697 5697 5698 5698 5698 5698 5697 5697 5697 5697 5697 5698 5698 5699 5700 5701 5702 5702 5702 5703 5703 5704 5704 5705 5705 5705 5705 5705 5705 5704 5704 5703 5703 5703 5702 5702 5702 5702 5701 5701 5701 5701 5700 5700 5700 5700 5700 5700 5699 5698 5697 5696
5688 5689 5689 5691 5692 5691 5691 5692 5692 5691 5691 5692 5693 5693 5693 5693 5693 5693 5692 5692 5692 5692 5692 5693 5694 5694 5695 5696 5697 5698 5699 5699 5699 5700 5700 5700 5700 5700 5700 5699 5699 5698 5697 5697 5696 5696 5695 5695 5694 5694 5694 5693 5693 5692 5692 5692 5692 5693 5692 5692 5690 5689 5689
5681 5682 5683 5684 5685 5685 5686 5687 5687 5686 5686 5687 5687 5688 5688 5688 5688 5688 5688 5687 5687 5687 5687 5688 5689 5690 5691 5691 5692 5693 5694 5694 5694 5694 5694 5694 5694 5694 5694 5693 5693 5692 5691 5691 5691 5690 5689 5688 5688 5687 5686 5686 5685 5685 5684 5684 5684 5684 5684 5684 5683 5682 5682
5674 5675 5676 5677 5678 5679 5679 5680 5680 5681 5681 5681 5682 5682 5683 5683 5683 5683 5683 5683 5683 5683 5683 5683 5684 5685 5686 5686 5687 5687 5687 5688 5688 5688 5688 5688 5688 5687 5687 5687 5686 5686 5686 5685 5685 5684 5683 5682 5681 5681 5680 5679 5679 5678 5677 5677 5676 5676 5676 5676 5675 5674 5673
5667 5668 5669 5669 5670 5671 5672 5672 5673 5674 5675 5675 5676 5676 5676 5677 5677 5678 5678 5678 5678 5678 5678 5679 5679 5680 5680 5680 5681 5681 5681 5681 5681 5681 5681 5681 5681 5681 5681 5681 5680 5680 5679 5679 5678 5678 5677 5676 5675 5674 5673 5673 5672 5671 5670 5669 5669 5668 5668 5667 5666 5665 5664
5659 5660 5661 5662 5663 5663 5664 5665 5666 5667 5668 5669 5669 5669 5670 5670 5670 5671 5672 5672 5672 5673 5673 5673 5673 5674 5674 5674 5674 5674 5674 5674 5675 5675 5675 5675 5675 5675 5675 5674 5674 5673 5673 5672 5672 5671 5670 5670 5668 5667 5666 5665 5665 5664 5663 5662 5661 5660 5660 5659 5658 5657 5656
5651 5652 5654 5655 5656 5657 5658 5658 5659 5660 5661 5662 5662 5663 5663 5663 5663 5664 5665 5665 5666 5666 5666 5666 5667 5667 5667 5667 5667 5667 5668 5668 5668 5669 5669 5669 5669 5669 5669 5668 5668 5667 5666 5665 5665 5664 5663 5663 5662 5661 5659 5658 5658 5657 5656 5655 5654 5653 5652 5651 5650 5649 5648
5644 5645 5646 5648 5649 5650 5651 5652 5653 5654 5655 5655 5655 5656 5656 5656 5656 5657 5657 5657 5657 5658 5659 5659 5660 5660 5660 5661 5661 5661 5662 5662 5662 5663 5663 5663 5663 5663 5663 5662 5661 5660 5659 5658 5657 5657 5656 5655 5655 5654 5653 5652 5651 5650 5650 5649 5648 5646 5645 5644 5643 5641 5639
5637 5638 5639 5640 5641 5642 5644 5645 5646 5648 5648 5647 5647 5647 5647 5648 5648 5649 5649 5649 5650 5650 5652 5652 5653 5654 5654 5655 5655 5655 5656 5656 5657 5657 5657 5657 5657 5657 5657 5656 5655 5654 5653 5652 5651 5650 5649 5648 5647 5646 5646 5645 5644 5643 5642 5642 5641 5639 5638 5636 5634 5633 5631
5629 5631 5632 5633 5634 5635 5636 5638 5639 5640 5640 5640 5640 5640 5640 5640 5641 5641 5641 5642 5643 5644 5645 5646 5647 5647 5648 5648 5649 5649 5649 5650 5650 5650 5650 5650 5650 5650 5650 5649 5649 5648 5647 5645 5644 5643 5642 5642 5641 5640 5639 5638 5638 5637 5636 5635 5634 5632 5630 5629 5627 5625 5623
5621 5622 5624 5626 5628 5628 5629 5630 5631 5632 5633 5633 5634 5634 5634 5634 5634 5634 5634 5634 5635 5637 5638 5638 5639 5640 5641 5641 5642 5642 5642 5642 5642 5642 5642 5642 5642 5642 5642 5642 5642 5641 5640 5639 5638 5637 5636 5635 5635 5634 5633 5632 5631 5630 5629 5628 5626 5625 5623 5621 5620 5618 5616
5613 5615 5616 5618 5620 5620 5621 5622 5624 5625 5626 5627 5627 5627 5628 5628 5627 5627 5627 5628 5629 5630 5630 5631 5632 5633 5633 5634 5634 5635 5635 5635 5635 5635 5635 5635 5635 5635 5635 5635 5634 5634 5633 5632 5631 5630 5630 5629 5628 5627 5627 5626 5625 5624 5622 5621 5619 5618 5616 5615 5613 5611 5609